Location: Goettingen
(51.5300°N, 9.9433°E)
Time: 07:19:27
(UTC+01:00)

ISS - Pass Details

Date: 05 December 2019
Orbit: 411 x 421 km, 51.6° (Epoch: 15 December)

Event Time Altitude Azimuth Distance (km) Brightness Sun altitude
Rises 17:35:23 0° 278° (W) 2,358 1.2 -12.1°
Reaches altitude 10° 17:37:28 10° 278° (W) 1,495 0.1 -12.4°
Maximum altitude 17:40:49 82° 193° (SSW) 427 -3.7 -12.9°
Enters shadow 17:43:04 20° 105° (ESE) 1,050 -2.2 -13.2°
